,,PA_Meas_PMT16A,,PR_Meas_QMR101_102,,RH_Meas_QMH101,,SR_Meas_QMS101,,TA_Meas_QMH101,,GenWind,,GenWind,
time,status,PA,status,PR,status,RH,status,SR,status,TA,status,DirAvg,status,SpdAvg,
2016-10-15, 16:16:04,VALID,917.962,VALID,0,INVALID,119.52,VALID,165.997,VALID,20.543,VALID,20,VALID,2.36914,
2016-10-15, 16:17:04,VALID,917.938,VALID,0,INVALID,119.817,VALID,199.948,VALID,20.525,VALID,338,VALID,1.94961,
2016-10-15, 16:18:04,VALID,917.911,VALID,0,INVALID,119.932,VALID,175.451,VALID,20.543,VALID,265,VALID,1.19844,
2016-10-15, 16:19:04,VALID,917.889,VALID,0,INVALID,119.97,VALID,198.014,VALID,20.6015,VALID,19,VALID,0,
2016-10-15, 16:20:04,VALID,917.877,VALID,0,INVALID,120.031,VALID,212.948,VALID,20.6616,VALID,40,VALID,0.475391,
2016-10-15, 16:55:04,VALID,917.989,VALID,0,INVALID,120.991,VALID,168.79,VALID,20.7771,VALID,276,VALID,0.714063,
2016-10-15, 16:56:04,VALID,918.025,VALID,0,INVALID,120.945,VALID,187.055,VALID,20.795,VALID,264,VALID,1.00977,
2016-10-15, 16:57:04,VALID,918.017,VALID,0,INVALID,120.907,VALID,156.542,VALID,20.8535,VALID,175,VALID,0,
2016-10-15, 17:04:04,VALID,917.988,VALID,0,INVALID,121.075,VALID,152.459,VALID,20.912,VALID,152,VALID,0.0121094,
2016-10-15, 17:05:04,VALID,917.989,VALID,0,INVALID,121.098,VALID,160.41,VALID,20.9316,VALID,256,VALID,0.838672,
2016-10-15, 17:06:04,VALID,917.952,VALID,0,INVALID,121.045,VALID,173.947,VALID,20.9706,VALID,23,VALID,1.81562,
2016-10-15, 17:08:04,VALID,917.953,VALID,0,INVALID,120.938,VALID,158.691,VALID,20.9901,VALID,353,VALID,2.99648,
2016-10-15, 17:09:04,VALID,917.937,VALID,0,INVALID,120.793,VALID,170.509,VALID,21.0291,VALID,356,VALID,0.767187,
2016-10-15, 17:10:04,VALID,917.926,VALID,0,INVALID,120.808,VALID,152.137,VALID,21.0681,VALID,48,VALID,0,
2016-10-15, 17:14:04,VALID,917.933,VALID,0,INVALID,120.869,VALID,185.229,VALID,21.1852,VALID,43,VALID,0,
2016-10-15, 17:15:04,VALID,917.929,VALID,0,INVALID,120.961,VALID,183.402,VALID,21.2616,VALID,25,VALID,0,
2016-10-15, 17:16:04,VALID,917.923,VALID,0,INVALID,120.991,VALID,182.757,VALID,21.3006,VALID,20,VALID,0,
2016-10-15, 17:17:04,VALID,917.9,VALID,0,INVALID,120.999,VALID,160.732,VALID,21.3006,VALID,1,VALID,0.814453,
2016-10-15, 17:21:04,VALID,917.975,VALID,0,INVALID,120.648,VALID,165.03,VALID,21.3201,VALID,138,VALID,0,
2016-10-15, 17:22:04,VALID,917.991,VALID,0,INVALID,120.671,VALID,224.552,VALID,21.3201,VALID,12,VALID,0,
2016-10-15, 17:23:04,VALID,917.972,VALID,0,INVALID,120.336,VALID,201.882,VALID,21.3217,VALID,290,VALID,1.47812,
2016-10-15, 17:24:04,VALID,918.016,VALID,0,INVALID,120.054,VALID,202.634,VALID,21.2616,VALID,289,VALID,0.660156,
2016-10-15, 17:25:04,VALID,917.973,VALID,0,INVALID,120.176,VALID,226.271,VALID,21.3006,VALID,41,VALID,0,
2016-10-15, 17:26:04,VALID,917.975,VALID,0,INVALID,120.458,VALID,282.57,VALID,21.3998,VALID,93,VALID,0,
2016-10-15, 17:27:04,VALID,917.928,VALID,0,INVALID,120.328,VALID,293.099,VALID,21.4372,VALID,50,VALID,0,
2016-10-15, 17:28:04,VALID,917.941,VALID,0,INVALID,119.657,VALID,280.744,VALID,21.4177,VALID,307,VALID,1.0707,
2016-10-15, 17:29:04,VALID,917.978,VALID,0,INVALID,119.924,VALID,306.207,VALID,21.5347,VALID,346,VALID,0,
2016-10-15, 17:30:04,VALID,917.897,VALID,0,INVALID,119.505,VALID,308.786,VALID,21.5737,VALID,347,VALID,0.565234,
2016-10-15, 17:31:04,VALID,917.965,VALID,0,INVALID,119.063,VALID,311.579,VALID,21.6713,VALID,274,VALID,0,
2016-10-15, 17:32:04,VALID,917.923,VALID,0,INVALID,119.055,VALID,337.365,VALID,21.7688,VALID,141,VALID,0.009375,
2016-10-15, 17:33:04,VALID,917.892,VALID,0,INVALID,119.169,VALID,330.489,VALID,21.9087,VALID,57,VALID,0.665625,
2016-10-15, 17:34:04,VALID,917.904,VALID,0,INVALID,119.207,VALID,335.861,VALID,21.9851,VALID,114,VALID,0,
2016-10-15, 17:35:04,VALID,917.903,VALID,0,INVALID,119.009,VALID,350.58,VALID,22.1217,VALID,297,VALID,0.662891,
2016-10-15, 17:36:04,VALID,917.854,VALID,0,INVALID,117.134,VALID,322.646,VALID,22.1591,VALID,166,VALID,0,
2016-10-15, 17:37:04,VALID,917.873,VALID,0,INVALID,113.032,VALID,312.654,VALID,22.2193,VALID,132,VALID,0.0179687,
2016-10-15, 17:38:04,VALID,917.834,VALID,0,VALID,97.3891,VALID,270.107,VALID,22.1217,VALID,153,VALID,0,
2016-10-15, 17:39:04,VALID,917.803,VALID,0,VALID,104,VALID,248.189,VALID,22.1396,VALID,349,VALID,0,
2016-10-15, 17:40:04,VALID,917.829,VALID,0,INVALID,116.676,VALID,307.282,VALID,22.2745,VALID,334,VALID,0,
2016-10-15, 17:41:04,VALID,917.776,VALID,0,VALID,104,VALID,324.365,VALID,22.294,VALID,154,VALID,0,
2016-10-15, 17:42:04,VALID,917.756,VALID,0,VALID,99.0815,VALID,321.571,VALID,22.3525,VALID,23,VALID,0,
2016-10-15, 17:43:04,VALID,917.748,VALID,0,INVALID,111.538,VALID,352.3,VALID,22.4696,VALID,33,VALID,0,
2016-10-15, 17:44:04,VALID,917.752,VALID,0,VALID,98.6241,VALID,350.903,VALID,22.5281,VALID,232,VALID,0,
2016-10-15, 17:45:04,VALID,917.716,VALID,0,INVALID,109.449,VALID,361.862,VALID,22.5477,VALID,342,VALID,0.127734,
2016-10-15, 17:46:04,VALID,917.706,VALID,0,INVALID,115.617,VALID,356.49,VALID,22.5477,VALID,343,VALID,1.81445,
2016-10-15, 17:47:04,VALID,917.675,VALID,0,INVALID,117.164,VALID,370.779,VALID,22.6665,VALID,23,VALID,0.581641,
2016-10-15, 17:48:04,VALID,917.651,VALID,0,INVALID,114.054,VALID,362.614,VALID,22.7038,VALID,28,VALID,0.0121094,
2016-10-15, 17:49:04,VALID,917.586,VALID,0,INVALID,115.373,VALID,362.292,VALID,22.8616,VALID,32,VALID,0,
2016-10-15, 17:50:04,VALID,917.622,VALID,0,VALID,99.8134,VALID,351.44,VALID,22.9185,VALID,97,VALID,0,
2016-10-15, 17:51:04,VALID,917.593,VALID,0,VALID,90.7187,VALID,331.349,VALID,22.8812,VALID,250,VALID,0,
2016-10-15, 17:52:04,VALID,917.615,VALID,0,VALID,104,VALID,308.141,VALID,22.9185,VALID,22,VALID,0.967188,
2016-10-15, 17:53:04,VALID,917.556,VALID,0,VALID,91.0693,VALID,267.958,VALID,22.8989,VALID,229,VALID,0,
2016-10-15, 17:54:04,VALID,917.592,VALID,0,VALID,98.243,VALID,253.991,VALID,22.8209,VALID,173,VALID,0,
2016-10-15, 17:55:04,VALID,917.555,VALID,0,VALID,98.5022,VALID,265.38,VALID,22.6825,VALID,244,VALID,0.9125,
2016-10-15, 17:56:04,VALID,917.571,VALID,0,INVALID,113.993,VALID,254.421,VALID,22.6452,VALID,31,VALID,1.72656,
2016-10-15, 17:57:04,VALID,917.574,VALID,0,INVALID,113.726,VALID,284.612,VALID,22.663,VALID,23,VALID,1.21719,
2016-10-15, 17:58:04,VALID,917.58,VALID,0,INVALID,114.412,VALID,341.018,VALID,22.6435,VALID,292,VALID,0.0632813,
2016-10-15, 17:59:04,VALID,917.549,VALID,0,VALID,104,VALID,348.002,VALID,22.6452,VALID,349,VALID,3.18086,
2016-10-15, 18:00:04,VALID,917.584,VALID,0,INVALID,112.201,VALID,353.481,VALID,22.6062,VALID,6,VALID,0,
2016-10-15, 18:01:04,VALID,917.525,VALID,0,VALID,104,VALID,345.638,VALID,22.6647,VALID,84,VALID,0.280469,
2016-10-15, 18:02:04,VALID,917.561,VALID,0,INVALID,111.256,VALID,335.646,VALID,22.7021,VALID,235,VALID,0,
2016-10-15, 18:03:04,VALID,917.539,VALID,0,INVALID,113.231,VALID,315.232,VALID,22.8191,VALID,32,VALID,1.57773,
2016-10-15, 18:04:04,VALID,917.516,VALID,0,INVALID,111.294,VALID,327.481,VALID,22.8191,VALID,15,VALID,0.480078,
2016-10-15, 18:05:04,VALID,917.496,VALID,0,VALID,104,VALID,310.075,VALID,22.8387,VALID,63,VALID,1.21953,
2016-10-15, 18:06:04,VALID,917.484,VALID,0,VALID,104,VALID,317.166,VALID,22.7818,VALID,317,VALID,0.0769531,
2016-10-15, 18:07:04,VALID,917.477,VALID,0,VALID,104,VALID,283,VALID,22.8421,VALID,282,VALID,0,
2016-10-15, 18:08:04,VALID,917.482,VALID,0,VALID,104,VALID,286.546,VALID,22.8794,VALID,212,VALID,0,
2016-10-15, 18:09:04,VALID,917.457,VALID,0,INVALID,109.251,VALID,274.082,VALID,22.9202,VALID,28,VALID,0.913672,
2016-10-15, 18:10:04,VALID,917.472,VALID,0,VALID,104,VALID,225.089,VALID,22.8989,VALID,227,VALID,0,
2016-10-15, 18:11:04,VALID,917.456,VALID,0,VALID,104,VALID,191.03,VALID,22.8404,VALID,224,VALID,0.357031,
2016-10-15, 18:12:04,VALID,917.471,VALID,0,VALID,101.125,VALID,201.345,VALID,22.7445,VALID,223,VALID,0.0046875,
2016-10-15, 18:13:04,VALID,917.441,VALID,0,VALID,104,VALID,184.691,VALID,22.7233,VALID,218,VALID,0,
2016-10-15, 18:14:04,VALID,917.411,VALID,0,INVALID,109.564,VALID,154.715,VALID,22.6843,VALID,26,VALID,0,
2016-10-15, 18:15:04,VALID,917.424,VALID,0,INVALID,113.124,VALID,146.979,VALID,22.663,VALID,81,VALID,0.414453,
2016-10-15, 18:16:04,VALID,917.423,VALID,0,INVALID,112.705,VALID,150.418,VALID,22.6843,VALID,198,VALID,0,
2016-10-15, 18:17:04,VALID,917.428,VALID,0,INVALID,112.415,VALID,175.451,VALID,22.6647,VALID,17,VALID,0.428125,
2016-10-15, 18:18:04,VALID,917.427,VALID,0,VALID,104,VALID,171.798,VALID,22.5477,VALID,332,VALID,0.828516,
2016-10-15, 18:19:04,VALID,917.451,VALID,0,INVALID,113.36,VALID,177.493,VALID,22.4891,VALID,335,VALID,0,
2016-10-15, 18:20:04,VALID,917.422,VALID,0,INVALID,111.645,VALID,170.939,VALID,22.4518,VALID,225,VALID,0.862891,
2016-10-15, 18:21:04,VALID,917.44,VALID,0,INVALID,114.405,VALID,153.748,VALID,22.3703,VALID,25,VALID,0,
2016-10-15, 18:22:04,VALID,917.41,VALID,0,INVALID,114.511,VALID,153.533,VALID,22.3703,VALID,40,VALID,0.778906,
2016-10-15, 18:23:04,VALID,917.427,VALID,0,INVALID,115.182,VALID,179.319,VALID,22.4289,VALID,53,VALID,0.00273437,
2016-10-15, 18:24:04,VALID,917.459,VALID,0,INVALID,114.931,VALID,216.601,VALID,22.4874,VALID,348,VALID,0,
2016-10-15, 18:25:04,VALID,917.367,VALID,0,INVALID,114.069,VALID,230.569,VALID,22.5672,VALID,49,VALID,0.000390625,
2016-10-15, 18:26:04,VALID,917.404,VALID,0,INVALID,111.797,VALID,243.462,VALID,22.5264,VALID,281,VALID,0.115625,
2016-10-15, 18:27:04,VALID,917.373,VALID,0,INVALID,113.109,VALID,218.428,VALID,22.5264,VALID,41,VALID,0,
2016-10-15, 18:28:04,VALID,917.38,VALID,0,INVALID,113.36,VALID,243.032,VALID,22.5867,VALID,105,VALID,0.0105469,
2016-10-15, 18:29:04,VALID,917.312,VALID,0,VALID,104,VALID,261.189,VALID,22.5655,VALID,26,VALID,0.35625,
2016-10-15, 18:30:04,VALID,917.347,VALID,0,VALID,104,VALID,228.098,VALID,22.5459,VALID,231,VALID,0,
2016-10-15, 18:31:04,VALID,917.396,VALID,0,VALID,97.008,VALID,198.229,VALID,22.5069,VALID,239,VALID,0.630859,
2016-10-15, 18:32:04,VALID,917.385,VALID,0,INVALID,109.282,VALID,162.881,VALID,22.4484,VALID,316,VALID,0,
2016-10-15, 18:33:04,VALID,917.423,VALID,0,VALID,95.9178,VALID,173.41,VALID,22.3899,VALID,251,VALID,0.480469,
2016-10-15, 18:34:04,VALID,917.406,VALID,0,VALID,104,VALID,167.823,VALID,22.4094,VALID,24,VALID,0.530859,
2016-10-15, 18:35:04,VALID,917.409,VALID,0,VALID,104,VALID,163.525,VALID,22.4289,VALID,9,VALID,0,
2016-10-15, 18:36:04,VALID,917.37,VALID,0,VALID,104,VALID,160.625,VALID,22.4696,VALID,66,VALID,0,
2016-10-15, 18:37:04,VALID,917.396,VALID,0,INVALID,111.622,VALID,158.583,VALID,22.5264,VALID,37,VALID,0,
2016-10-15, 18:38:04,VALID,917.377,VALID,0,VALID,102.321,VALID,159.12,VALID,22.5069,VALID,218,VALID,0,
2016-10-15, 18:39:04,VALID,917.386,VALID,0,VALID,103.595,VALID,147.624,VALID,22.5281,VALID,341,VALID,0.104687,
2016-10-15, 18:40:04,VALID,917.356,VALID,0,VALID,101.048,VALID,148.913,VALID,22.4111,VALID,235,VALID,0.00195313,
2016-10-15, 18:41:04,VALID,917.33,VALID,0,VALID,104,VALID,146.765,VALID,22.4111,VALID,63,VALID,0,
2016-10-15, 18:42:04,VALID,917.342,VALID,0,VALID,102.687,VALID,151.17,VALID,22.4111,VALID,190,VALID,0.0015625,
2016-10-15, 18:43:04,VALID,917.318,VALID,0,VALID,98.3497,VALID,180.931,VALID,22.3542,VALID,258,VALID,0.798437,
2016-10-15, 18:44:04,VALID,917.317,VALID,0,INVALID,110.532,VALID,192.964,VALID,22.2957,VALID,281,VALID,0,
2016-10-15, 18:45:04,VALID,917.261,VALID,0,INVALID,110.219,VALID,180.931,VALID,22.255,VALID,93,VALID,0,
2016-10-15, 18:46:04,VALID,917.157,VALID,0,VALID,95.5748,VALID,168.253,VALID,22.2159,VALID,52,VALID,1.05234,
2016-10-15, 18:47:04,VALID,917.248,VALID,0,VALID,95.3766,VALID,219.395,VALID,22.1964,VALID,340,VALID,0.680469,
2016-10-15, 18:48:04,VALID,917.25,VALID,0,INVALID,110.631,VALID,237.875,VALID,22.255,VALID,344,VALID,0.190234,
2016-10-15, 18:49:04,VALID,917.178,VALID,0,VALID,104,VALID,240.131,VALID,22.2745,VALID,329,VALID,0.23125,
2016-10-15, 18:50:04,VALID,917.165,VALID,0,INVALID,111.851,VALID,225.841,VALID,22.3135,VALID,53,VALID,0.0125,
2016-10-15, 18:51:04,VALID,917.157,VALID,0,VALID,104,VALID,163.418,VALID,22.333,VALID,357,VALID,0.591406,
2016-10-15, 18:52:04,VALID,917.204,VALID,0,INVALID,109.106,VALID,163.955,VALID,22.372,VALID,227,VALID,0.00195313,
2016-10-15, 18:53:04,VALID,917.169,VALID,0,VALID,104,VALID,184.799,VALID,22.3933,VALID,242,VALID,0,
2016-10-15, 18:54:04,VALID,917.147,VALID,0,VALID,104,VALID,213.486,VALID,22.3933,VALID,66,VALID,0,
2016-10-15, 18:55:04,VALID,917.133,VALID,0,INVALID,112.018,VALID,250.553,VALID,22.4128,VALID,306,VALID,0,
2016-10-15, 18:56:04,VALID,917.128,VALID,0,VALID,104,VALID,260.652,VALID,22.4518,VALID,239,VALID,0,
2016-10-15, 18:57:04,VALID,917.158,VALID,0,INVALID,112.613,VALID,244.644,VALID,22.4891,VALID,33,VALID,0,
2016-10-15, 18:58:04,VALID,917.207,VALID,0,INVALID,109.937,VALID,256.14,VALID,22.5494,VALID,341,VALID,0.179297,
2016-10-15, 18:59:04,VALID,917.143,VALID,0,INVALID,109.792,VALID,249.478,VALID,22.6274,VALID,39,VALID,1.12109,
2016-10-15, 19:00:04,VALID,917.121,VALID,0,INVALID,109.411,VALID,230.032,VALID,22.686,VALID,10,VALID,0.471094,
2016-10-15, 19:01:04,VALID,917.106,VALID,0,VALID,88.9043,VALID,226.271,VALID,22.6274,VALID,356,VALID,0.632031,
2016-10-15, 19:02:04,VALID,917.124,VALID,0,VALID,92.0985,VALID,212.948,VALID,22.5477,VALID,12,VALID,0.297266,
2016-10-15, 19:03:04,VALID,917.112,VALID,0,VALID,104,VALID,219.18,VALID,22.5884,VALID,37,VALID,0.0679687,
2016-10-15, 19:04:04,VALID,917.047,VALID,0,VALID,102.87,VALID,228.205,VALID,22.5689,VALID,24,VALID,2.01289,
2016-10-15, 19:05:04,VALID,917.041,VALID,0,INVALID,111.104,VALID,244.966,VALID,22.5689,VALID,44,VALID,0.0949219,
2016-10-15, 19:06:04,VALID,917.042,VALID,0,VALID,104,VALID,287.513,VALID,22.6062,VALID,281,VALID,0,
2016-10-15, 19:07:04,VALID,917.026,VALID,0,VALID,104,VALID,298.686,VALID,22.6257,VALID,241,VALID,0.716016,
2016-10-15, 19:08:04,VALID,917.025,VALID,0,VALID,104,VALID,244.536,VALID,22.6079,VALID,305,VALID,0.169922,
2016-10-15, 19:09:04,VALID,917.047,VALID,0,VALID,90.185,VALID,227.56,VALID,22.5672,VALID,261,VALID,1.04688,
2016-10-15, 19:10:04,VALID,917.003,VALID,0,VALID,104,VALID,314.158,VALID,22.5103,VALID,338,VALID,0.185547,
2016-10-15, 19:11:04,VALID,917.005,VALID,0,INVALID,112.522,VALID,364.44,VALID,22.5689,VALID,360,VALID,0.91875,
2016-10-15, 19:12:04,VALID,916.972,VALID,0,INVALID,110.768,VALID,379.804,VALID,22.6647,VALID,46,VALID,0.889844,
2016-10-15, 19:13:04,VALID,916.938,VALID,0,VALID,96.2761,VALID,374.755,VALID,22.7623,VALID,58,VALID,0.116797,
2016-10-15, 19:14:04,VALID,916.961,VALID,0,VALID,104,VALID,403.871,VALID,22.8794,VALID,353,VALID,0.1375,
2016-10-15, 19:15:04,VALID,916.926,VALID,0,VALID,104,VALID,421.277,VALID,23.016,VALID,20,VALID,0,
2016-10-15, 19:16:04,VALID,916.929,VALID,0,VALID,95.1707,VALID,436.211,VALID,23.1917,VALID,346,VALID,0.178906,
2016-10-15, 19:17:04,VALID,916.907,VALID,0,VALID,90.0173,VALID,422.888,VALID,23.3674,VALID,8,VALID,0.183984,
2016-10-15, 19:18:04,VALID,916.884,VALID,0,VALID,93.6537,VALID,469.196,VALID,23.5235,VALID,18,VALID,0.0359375,
2016-10-15, 19:19:04,VALID,916.867,VALID,0,VALID,91.237,VALID,503.039,VALID,23.6992,VALID,21,VALID,0.0605469,
2016-10-15, 19:20:04,VALID,916.885,VALID,0,VALID,84.193,VALID,502.502,VALID,23.7968,VALID,325,VALID,0.752734,
2016-10-15, 19:21:04,VALID,916.835,VALID,0,VALID,80.1678,VALID,505.833,VALID,23.6797,VALID,248,VALID,0.204297,
2016-10-15, 19:22:04,VALID,916.818,VALID,0,VALID,86.541,VALID,514.965,VALID,23.6974,VALID,42,VALID,0.294141,
2016-10-15, 19:23:04,VALID,916.774,VALID,0,VALID,85.9159,VALID,537.421,VALID,23.8731,VALID,24,VALID,0,
2016-10-15, 19:24:04,VALID,916.739,VALID,0,VALID,81.6849,VALID,563.421,VALID,24.0097,VALID,327,VALID,1.05664,
2016-10-15, 19:25:04,VALID,916.767,VALID,0,VALID,82.5311,VALID,572.124,VALID,24.0683,VALID,24,VALID,1.41641,
2016-10-15, 19:26:04,VALID,916.767,VALID,0,VALID,82.2262,VALID,603.927,VALID,24.244,VALID,340,VALID,0.0105469,
2016-10-15, 19:27:04,VALID,916.669,VALID,0,VALID,82.0127,VALID,555.793,VALID,24.3221,VALID,31,VALID,0.116797,
2016-10-15, 19:28:04,VALID,916.69,VALID,0,VALID,83.7661,VALID,519.585,VALID,24.4392,VALID,313,VALID,0.0417969,
2016-10-15, 19:29:04,VALID,916.664,VALID,0,VALID,80.7243,VALID,510.775,VALID,24.5564,VALID,355,VALID,0.233594,
2016-10-15, 19:30:04,VALID,916.615,VALID,0,VALID,82.5997,VALID,508.626,VALID,24.4959,VALID,4,VALID,1.58281,
2016-10-15, 19:31:04,VALID,916.612,VALID,0,VALID,81.5629,VALID,508.949,VALID,24.5759,VALID,2,VALID,0.842578,
2016-10-15, 19:32:04,VALID,916.59,VALID,0,VALID,80.8997,VALID,512.387,VALID,24.7107,VALID,9,VALID,2.2,
2016-10-15, 19:33:04,VALID,916.597,VALID,0,VALID,79.4131,VALID,504.651,VALID,24.7302,VALID,11,VALID,0,
2016-10-15, 19:34:04,VALID,916.558,VALID,0,VALID,80.1755,VALID,497.882,VALID,24.7107,VALID,339,VALID,2.23398,
2016-10-15, 19:35:04,VALID,916.522,VALID,0,VALID,79.2225,VALID,502.18,VALID,24.6345,VALID,355,VALID,0.896094,
2016-10-15, 19:36:04,VALID,916.519,VALID,0,VALID,80.3279,VALID,499.386,VALID,24.5935,VALID,302,VALID,0.0210938,
2016-10-15, 19:37:04,VALID,916.52,VALID,0,VALID,78.2696,VALID,506.692,VALID,24.6326,VALID,227,VALID,0.00585938,
2016-10-15, 19:38:04,VALID,916.475,VALID,0,VALID,79.0472,VALID,476.394,VALID,24.6521,VALID,93,VALID,0,
2016-10-15, 19:39:04,VALID,916.458,VALID,0,VALID,78.6355,VALID,469.196,VALID,24.693,VALID,50,VALID,0.0820313,
2016-10-15, 19:40:04,VALID,916.423,VALID,0,VALID,79.0548,VALID,461.997,VALID,24.7907,VALID,35,VALID,0,
2016-10-15, 19:41:04,VALID,916.442,VALID,0,VALID,77.9647,VALID,454.798,VALID,24.8083,VALID,44,VALID,0,
2016-10-15, 19:42:04,VALID,916.404,VALID,0,VALID,75.6777,VALID,443.41,VALID,24.6716,VALID,234,VALID,0.492578,
2016-10-15, 19:43:04,VALID,916.372,VALID,0,VALID,79.8705,VALID,427.831,VALID,24.6912,VALID,67,VALID,0.337109,
2016-10-15, 19:44:04,VALID,916.352,VALID,0,VALID,77.8198,VALID,424.178,VALID,24.7497,VALID,352,VALID,0.0078125,
2016-10-15, 19:45:04,VALID,916.367,VALID,0,VALID,77.088,VALID,413.648,VALID,24.6912,VALID,324,VALID,0.0191406,
2016-10-15, 19:46:04,VALID,916.326,VALID,0,VALID,80.3889,VALID,393.235,VALID,24.6326,VALID,31,VALID,0.699219,
2016-10-15, 19:47:04,VALID,916.322,VALID,0,VALID,79.4284,VALID,384.854,VALID,24.6912,VALID,2,VALID,0.450391,
2016-10-15, 19:48:04,VALID,916.26,VALID,0,VALID,78.8947,VALID,396.78,VALID,24.6698,VALID,20,VALID,0.707812,
2016-10-15, 19:49:04,VALID,916.249,VALID,0,VALID,76.9355,VALID,393.879,VALID,24.7693,VALID,15,VALID,0.1625,
2016-10-15, 19:50:04,VALID,916.226,VALID,0,VALID,76.6535,VALID,394.094,VALID,24.7869,VALID,18,VALID,1.05703,
2016-10-15, 19:51:04,VALID,916.245,VALID,0,VALID,76.5315,VALID,407.954,VALID,24.8492,VALID,32,VALID,0,
2016-10-15, 19:52:04,VALID,916.229,VALID,0,VALID,74.9153,VALID,406.88,VALID,24.9645,VALID,205,VALID,0.405078,
2016-10-15, 19:53:04,VALID,916.241,VALID,0,VALID,77.1566,VALID,388.83,VALID,24.9645,VALID,223,VALID,0.0078125,
2016-10-15, 19:54:04,VALID,916.241,VALID,0,VALID,73.0171,VALID,397.855,VALID,24.945,VALID,223,VALID,0,
2016-10-15, 19:55:04,VALID,916.189,VALID,0,VALID,73.4364,VALID,432.88,VALID,24.8474,VALID,237,VALID,0.636719,
2016-10-15, 19:56:04,VALID,916.134,VALID,0,VALID,74.4274,VALID,554.934,VALID,24.535,VALID,247,VALID,0.260938,
2016-10-15, 19:57:04,VALID,916.105,VALID,0,VALID,76.0131,VALID,456.303,VALID,24.4587,VALID,219,VALID,0,
2016-10-15, 19:58:04,VALID,916.097,VALID,0,VALID,74.9915,VALID,741.774,VALID,24.4764,VALID,273,VALID,0.831641,
2016-10-15, 19:59:04,VALID,916.053,VALID,0,VALID,75.0983,VALID,588.885,VALID,24.3788,VALID,248,VALID,0,
2016-10-15, 20:00:04,VALID,916.058,VALID,0,VALID,75.9978,VALID,365.192,VALID,24.4764,VALID,248,VALID,0,
2016-10-15, 20:01:04,VALID,915.996,VALID,0,VALID,76.4705,VALID,303.629,VALID,24.6326,VALID,249,VALID,0,
2016-10-15, 20:02:04,VALID,916.001,VALID,0,VALID,73.3601,VALID,243.139,VALID,24.6698,VALID,232,VALID,0.205859,
2016-10-15, 20:03:04,VALID,916.027,VALID,0,VALID,73.9319,VALID,172.443,VALID,24.6912,VALID,211,VALID,0,
2016-10-15, 20:04:04,VALID,917.04,VALID,0,VALID,74.5036,VALID,138.599,VALID,24.7497,VALID,211,VALID,0,
2016-10-15, 20:14:04,INVALID - VALUE NOT AVAILABLE,0,INVALID - VALUE NOT AVAILABLE,0,INVALID - VALUE NOT AVAILABLE,0,INVALID - VALUE NOT AVAILABLE,0,INVALID - VALUE NOT AVAILABLE,0,INVALID,360,INVALID,0,
2016-10-15, 20:19:04,VALID,916.823,VALID,0.2,INVALID,116.783,VALID,118.615,VALID,22.4484,VALID,56,VALID,0,
2016-10-15, 20:20:04,VALID,916.147,VALID,0.4,INVALID,117.576,VALID,165.03,VALID,22.2338,VALID,99,VALID,0.947266,
2016-10-15, 20:21:04,VALID,916.173,VALID,0.8,INVALID,118.742,VALID,178.997,VALID,22.076,VALID,16,VALID,0.0582031,
2016-10-15, 20:22:04,VALID,916.133,VALID,0.4,INVALID,119.84,VALID,200.915,VALID,21.959,VALID,19,VALID,0.453906,
2016-10-15, 20:23:04,VALID,916.144,VALID,0,INVALID,120.229,VALID,232.288,VALID,21.8419,VALID,9,VALID,0.0933594,
2016-10-15, 20:24:04,VALID,916.105,VALID,0,INVALID,120.328,VALID,315.017,VALID,21.707,VALID,294,VALID,1.3,
2016-10-15, 20:25:04,VALID,916.131,VALID,0,INVALID,120.58,VALID,341.663,VALID,21.668,VALID,329,VALID,0.794922,
2016-10-15, 20:26:04,VALID,916.081,VALID,0,INVALID,120.74,VALID,633.043,VALID,21.6875,VALID,44,VALID,0.548828,
2016-10-15, 20:27:04,VALID,916.081,VALID,0,INVALID,120.641,VALID,391.193,VALID,21.8045,VALID,281,VALID,0,
2016-10-15, 20:28:04,VALID,916.06,VALID,0,INVALID,120.488,VALID,255.388,VALID,21.9216,VALID,18,VALID,1.06602,
2016-10-15, 20:29:04,VALID,916.079,VALID,0,INVALID,120.862,VALID,266.239,VALID,21.9199,VALID,16,VALID,0.608984,
2016-10-15, 20:30:04,VALID,916.084,VALID,0,INVALID,120.9,VALID,315.984,VALID,21.8224,VALID,348,VALID,0.0609375,
2016-10-15, 20:31:04,VALID,916.058,VALID,0,INVALID,120.717,VALID,331.671,VALID,21.8809,VALID,20,VALID,0.122656,
2016-10-15, 20:32:04,VALID,916.021,VALID,0,INVALID,120.686,VALID,301.48,VALID,21.959,VALID,359,VALID,0.630469,
2016-10-15, 20:33:04,VALID,916.042,VALID,0,INVALID,120.541,VALID,340.803,VALID,22.0175,VALID,13,VALID,0,
2016-10-15, 20:34:04,VALID,915.937,VALID,0,INVALID,120.473,VALID,329.2,VALID,22.0565,VALID,13,VALID,1.3,
2016-10-15, 20:35:04,VALID,915.969,VALID,0,INVALID,119.954,VALID,322.753,VALID,22.3118,VALID,27,VALID,0,
2016-10-15, 20:36:04,VALID,915.968,VALID,0,INVALID,120.282,VALID,415.797,VALID,22.2711,VALID,337,VALID,0,
2016-10-15, 20:37:04,VALID,915.931,VALID,0,INVALID,120.496,VALID,360.465,VALID,22.2728,VALID,349,VALID,0.0632813,
2016-10-15, 20:38:04,VALID,915.911,VALID,0,INVALID,120.717,VALID,400.111,VALID,22.2321,VALID,270,VALID,0,
2016-10-15, 20:39:04,VALID,915.896,VALID,0,INVALID,120.74,VALID,356.49,VALID,22.3313,VALID,312,VALID,0,
2016-10-15, 20:40:04,VALID,915.92,VALID,0,INVALID,120.641,VALID,349.721,VALID,22.4094,VALID,300,VALID,0,
2016-10-15, 20:41:04,VALID,915.837,VALID,0,INVALID,120.709,VALID,505.511,VALID,22.4467,VALID,32,VALID,0,
2016-10-15, 20:42:04,VALID,915.807,VALID,0,INVALID,120.869,VALID,418.913,VALID,22.5247,VALID,13,VALID,0,
2016-10-15, 20:43:04,VALID,915.817,VALID,0,INVALID,121.083,VALID,392.805,VALID,22.5637,VALID,22,VALID,0.986328,
2016-10-15, 20:44:04,VALID,915.756,VALID,0,INVALID,120.907,VALID,370.135,VALID,22.6808,VALID,345,VALID,1.48477,
2016-10-15, 20:45:04,VALID,915.761,VALID,0,INVALID,121.128,VALID,338.869,VALID,22.5655,VALID,16,VALID,1.93828,
2016-10-15, 20:46:04,VALID,915.69,VALID,0,INVALID,120.999,VALID,277.198,VALID,22.6223,VALID,15,VALID,0.490234,
2016-10-15, 20:47:04,VALID,915.706,VALID,0,INVALID,120.945,VALID,389.259,VALID,22.6613,VALID,30,VALID,0,
2016-10-15, 20:48:04,VALID,915.663,VALID,0,INVALID,120.824,VALID,621.977,VALID,22.6223,VALID,301,VALID,2.44961,
2016-10-15, 20:49:04,VALID,915.635,VALID,0,INVALID,120.221,VALID,678.169,VALID,22.6435,VALID,34,VALID,0,
2016-10-15, 20:50:04,VALID,915.619,VALID,0,INVALID,120.663,VALID,803.015,VALID,22.8369,VALID,35,VALID,2.23828,
2016-10-15, 20:51:04,VALID,915.596,VALID,0,INVALID,120.831,VALID,610.373,VALID,22.993,VALID,5,VALID,2.23906,
2016-10-15, 20:52:04,VALID,915.563,VALID,0,INVALID,119.871,VALID,643.465,VALID,22.954,VALID,24,VALID,0.762109,